sat.trackr.live / text

‹ back to catalog

STARLINK-2015

NORAD 47638 · 2021-012U

PAYLOAD ACTIVE UNKNOWN

§ Identity

Operator
Country
US
Launch date
2021-02-16
Launch site
AFETR
Launch vehicle
Mass (kg)
RCS (m²)

Purposes: comms

External: N2YO · Heavens-Above · Gunter

§ Orbital elements

Epoch: 2026-09-19T04:03:38.725344Z

Period
93.23 min
Inclination
53.1532°
Eccentricity
0.0001273
Mean motion
15.44541676 rev/d
Perigee alt
431.9 km
Apogee alt
433.6 km
Semi-major
6,810.9 km
B*
1.0703e-3
RAAN
145.6402°
Arg perigee
147.3896°
Mean anomaly
212.7190°
Rev number
31,109

§ Raw data

STARLINK-20151 47638U 21012U   26262.16919821  .00050379  00000+0  10703-2 0  99952 47638  53.1532 145.6402 0001273 147.3896 212.7190 15.44541676311091

JSON: /api/v1/satellites/47638 · /tle

For live sub-satellite position, see the globe view (requires WebGL).

§ Visibility from observer

Set your observer location to see the next 7 days of passes ≥ 10°. The values pass through the URL so the page stays shareable.

No JS? Fill the form by hand. The geolocation button needs JavaScript.